Wilson Heron — 9HJW9 — position and weather

sailwx.info

Track history (hours):
 
Tides and Currents Weather Stations Pressure Air Temp Water Temp Dewpoint Dewpoint Depression Visibility Wind Speed Wind Dir Waves Ship Positions

Wilson Heron

Last reported at 2014-Oct-22 16:33 UTC. Time now 2014-Oct-23 09:24 UTC.
Position N 67°30' E 014°39'.

Length 91 m; draft 4.4 m.

Type: Cargo ship. MMSI: 249075000.

Date/timePositionNaut miles runAvg speedWind from/ knotsBaromVisibWave heightAir tempDewpointWater temp
2014-Oct-22 16:33N 67°30' E 014°39'1111.1
2014-Oct-22 15:33N 67°21' E 014°23'1110.6
2014-Oct-22 14:33N 67°13' E 014°05'9 9.1
2014-Oct-22 13:32N 67°13' E 013°40'4010.0
2014-Oct-22 09:29N 66°47' E 012°21'9 9.7
2014-Oct-22 08:33N 66°40' E 012°05'8 7.4
2014-Oct-22 07:28N 66°39' E 011°45'164 9.5
2014-Oct-21 14:17N 64°05' E 009°30'1810.5
2014-Oct-21 12:33N 63°48' E 009°14'1110.8
2014-Oct-21 11:32N 63°38' E 009°15'  
2014-Oct-15 08:32N 54°05' E 004°48'8 7.8
2014-Oct-15 07:33N 53°58' E 004°49'12 8.1
2014-Oct-15 06:04N 53°46' E 004°50'5 8.0
2014-Oct-15 05:28N 53°41' E 004°50'8 8.4
2014-Oct-15 04:34N 53°33' E 004°47'8 8.3
2014-Oct-15 03:33N 53°26' E 004°41'9 8.5
2014-Oct-15 02:33N 53°18' E 004°36'28 8.8
2014-Oct-14 23:19N 52°52' E 004°14'7 9.2
2014-Oct-14 22:32N 52°46' E 004°09'10 9.6
2014-Oct-14 21:32N 52°38' E 004°01'1010.0
2014-Oct-14 20:34N 52°29' E 003°54'1010.1
2014-Oct-14 19:33N 52°19' E 003°52'10 9.8
2014-Oct-14 18:34N 52°09' E 003°55'9 9.2
2014-Oct-14 17:34N 52°01' E 003°60'7 6.4
2014-Oct-14 16:33N 51°57' E 004°09'0 0.0
2014-Oct-14 15:33N 51°57' E 004°09'0 0.0
2014-Oct-14 14:33N 51°57' E 004°09'0 0.0
2014-Oct-14 13:33N 51°57' E 004°09'0 0.0
2014-Oct-14 12:33N 51°57' E 004°09'0 0.1
2014-Oct-14 11:34N 51°57' E 004°09'6 6.5
2014-Oct-14 10:33N 52°00' E 003°59'7 7.1
2014-Oct-14 09:33N 52°00' E 003°48'7 7.0
2014-Oct-14 08:32N 51°57' E 003°37'8 8.6
2014-Oct-14 07:33N 51°55' E 003°24'1110.5
2014-Oct-14 06:29N 51°51' E 003°07'1110.5
2014-Oct-14 05:26N 51°48' E 002°50'910.0
2014-Oct-14 04:33N 51°44' E 002°37'1716.8
2014-Oct-14 03:33N 51°31' E 002°20'5 5.1
2014-Oct-14 02:33N 51°27' E 002°15'1110.4
2014-Oct-14 01:31N 51°18' E 002°07'9 9.1
2014-Oct-14 00:33N 51°11' E 001°58'8 8.1
2014-Oct-13 23:33N 51°06' E 001°47'7 7.3
2014-Oct-13 22:33N 51°01' E 001°39'7 7.2
2014-Oct-13 21:33N 50°56' E 001°31'34 8.3
2014-Oct-13 17:29N 50°32' E 000°55'8 8.8
2014-Oct-13 16:33N 50°29' E 000°42'9 9.2
2014-Oct-13 15:33N 50°27' E 000°28'  
Track history (hours):
 
Tides and Currents Weather Stations Pressure Air Temp Water Temp Dewpoint Dewpoint Depression Visibility Wind Speed Wind Dir Waves Ship Positions

Wilson Heron

Last reported at 2014-Oct-22 16:33 UTC. Time now 2014-Oct-23 09:24 UTC.
Position N 67°30' E 014°39'.

Length 91 m; draft 4.4 m.

Type: Cargo ship. MMSI: 249075000.

Date/timePositionNaut miles runAvg speedWind from/ knotsBaromVisibWave heightAir tempDewpointWater temp
2014-Oct-22 16:33N 67°30' E 014°39'1111.1
2014-Oct-22 15:33N 67°21' E 014°23'1110.6
2014-Oct-22 14:33N 67°13' E 014°05'9 9.1
2014-Oct-22 13:32N 67°13' E 013°40'4010.0
2014-Oct-22 09:29N 66°47' E 012°21'9 9.7
2014-Oct-22 08:33N 66°40' E 012°05'8 7.4
2014-Oct-22 07:28N 66°39' E 011°45'164 9.5
2014-Oct-21 14:17N 64°05' E 009°30'1810.5
2014-Oct-21 12:33N 63°48' E 009°14'1110.8
2014-Oct-21 11:32N 63°38' E 009°15'  
2014-Oct-15 08:32N 54°05' E 004°48'8 7.8
2014-Oct-15 07:33N 53°58' E 004°49'12 8.1
2014-Oct-15 06:04N 53°46' E 004°50'5 8.0
2014-Oct-15 05:28N 53°41' E 004°50'8 8.4
2014-Oct-15 04:34N 53°33' E 004°47'8 8.3
2014-Oct-15 03:33N 53°26' E 004°41'9 8.5
2014-Oct-15 02:33N 53°18' E 004°36'28 8.8
2014-Oct-14 23:19N 52°52' E 004°14'7 9.2
2014-Oct-14 22:32N 52°46' E 004°09'10 9.6
2014-Oct-14 21:32N 52°38' E 004°01'1010.0
2014-Oct-14 20:34N 52°29' E 003°54'1010.1
2014-Oct-14 19:33N 52°19' E 003°52'10 9.8
2014-Oct-14 18:34N 52°09' E 003°55'9 9.2
2014-Oct-14 17:34N 52°01' E 003°60'7 6.4
2014-Oct-14 16:33N 51°57' E 004°09'0 0.0
2014-Oct-14 15:33N 51°57' E 004°09'0 0.0
2014-Oct-14 14:33N 51°57' E 004°09'0 0.0
2014-Oct-14 13:33N 51°57' E 004°09'0 0.0
2014-Oct-14 12:33N 51°57' E 004°09'0 0.1
2014-Oct-14 11:34N 51°57' E 004°09'6 6.5
2014-Oct-14 10:33N 52°00' E 003°59'7 7.1
2014-Oct-14 09:33N 52°00' E 003°48'7 7.0
2014-Oct-14 08:32N 51°57' E 003°37'8 8.6
2014-Oct-14 07:33N 51°55' E 003°24'1110.5
2014-Oct-14 06:29N 51°51' E 003°07'1110.5
2014-Oct-14 05:26N 51°48' E 002°50'910.0
2014-Oct-14 04:33N 51°44' E 002°37'1716.8
2014-Oct-14 03:33N 51°31' E 002°20'5 5.1
2014-Oct-14 02:33N 51°27' E 002°15'1110.4
2014-Oct-14 01:31N 51°18' E 002°07'9 9.1
2014-Oct-14 00:33N 51°11' E 001°58'8 8.1
2014-Oct-13 23:33N 51°06' E 001°47'7 7.3
2014-Oct-13 22:33N 51°01' E 001°39'7 7.2
2014-Oct-13 21:33N 50°56' E 001°31'34 8.3
2014-Oct-13 17:29N 50°32' E 000°55'8 8.8
2014-Oct-13 16:33N 50°29' E 000°42'9 9.2
2014-Oct-13 15:33N 50°27' E 000°28'  

Dump ship's entire track history